Location: Ferchesar
(52.6477°N, 12.4298°E)
Time: 06:55:57
(UTC+02:00)

Transit 4A - Pass Details

Date: 02 March 2021
Orbit: 869 x 976 km, 66.8° (Epoch: 12 April)

Event Time Altitude Azimuth Distance (km) Brightness Sun altitude
Rises 15:38:15 0° 301° (WNW) 3,637 11.3 17.4°
Reaches altitude 10° 15:41:28 10° 317° (NW) 2,674 10.4 17.0°
Maximum altitude 15:46:13 22° 7° (N) 1,912 9.3 16.4°
Drops below altitude 10° 15:50:53 10° 57° (ENE) 2,614 9.7 15.9°
Sets 15:53:59 0° 73° (ENE) 3,535 10.3 15.5°
